Wind_Speed
6 6 5 6 6 6 6 6 6 7 7 7 7 6 6 6 7 7 7 7 6 7 8 7 7 7 7 6 6 6 7 7 7 7 6 6 6 6 6 6 6 6 5 6
7 6 6 6 6 6 6 7 7 8 8 7 6 7 6 7 7 7 7 7 7 7 6 6 7 7 7 7 6 6 6 5 6 6 6 6 6 5 5 5 5 5 5 5
7 6 6 6 7 7 7 7 8 8 8 8 7 7 7 8 8 8 7 7 6 6 6 5 6 7 7 8 7 6 5 5 5 6 6 6 6 5 5 6 5 5 4 3
8 7 7 7 7 8 8 8 8 9 9 8 8 7 8 8 8 8 7 7 6 6 7 6 7 7 7 7 7 7 6 6 5 5 6 6 5 5 5 5 4 3 3 2
8 8 8 7 7 8 8 8 8 9 9 8 8 8 7 7 8 8 8 7 7 6 6 6 7 7 7 7 6 6 6 6 6 6 6 6 6 5 5 4 3 3 3 3
10 9 9 8 8 9 9 9 9 9 9 8 7 8 6 7 8 8 7 7 7 7 7 7 7 7 6 7 6 6 6 6 6 6 6 6 6 6 5 4 4 4 4 4
10 10 9 10 10 10 10 10 10 10 9 8 8 8 7 8 8 8 8 8 7 7 7 6 6 7 7 7 7 7 7 7 6 6 6 6 6 6 5 5 5 4 4 4
11 11 10 11 11 11 10 11 11 10 9 8 8 8 8 8 8 8 8 8 7 6 6 6 7 7 7 7 7 7 7 8 8 7 7 7 7 6 6 6 6 5 5 4
12 11 11 11 11 11 11 11 11 11 11 10 9 8 8 8 7 7 7 7 7 6 6 6 7 7 7 7 6 6 7 7 8 8 7 7 7 7 7 7 7 6 5 5
14 13 12 12 12 11 12 11 11 12 12 11 9 8 7 7 7 7 7 7 7 7 7 7 7 7 7 7 7 7 7 7 8 8 8 8 8 7 7 7 7 7 7 7
16 15 14 13 12 12 12 12 12 12 12 12 10 8 8 8 9 8 8 8 8 7 7 6 7 7 7 7 7 7 7 7 7 7 8 8 8 8 8 8 7 7 7 7
17 17 16 15 14 13 13 13 13 13 12 13 12 9 9 9 9 9 8 8 8 7 7 6 7 7 7 7 7 7 7 7 8 7 7 7 8 8 8 8 8 8 8 8
19 19 18 17 16 15 15 14 14 14 14 13 12 9 9 10 10 10 9 8 8 7 7 7 7 7 7 7 7 7 7 7 8 8 8 8 8 8 8 8 8 8 9 9
22 21 20 19 17 17 16 16 15 15 15 14 12 10 10 10 10 9 9 9 9 8 8 7 8 7 7 7 7 7 8 8 8 8 8 8 8 8 8 8 8 8 9 9
23 22 21 21 20 19 18 17 17 17 17 16 13 11 10 10 10 10 9 9 9 9 9 9 9 8 8 7 8 7 8 7 7 8 7 8 8 8 9 9 9 9 9 9
25 24 23 23 22 21 21 19 18 18 18 17 15 12 11 12 12 11 10 10 10 10 10 10 10 9 9 8 8 8 8 8 8 8 8 9 9 9 9 9 10 10 10 10
27 26 25 24 23 23 22 20 19 19 18 18 16 14 14 13 13 12 12 11 11 10 11 11 11 10 10 9 9 8 8 8 9 9 9 9 10 10 10 10 10 11 11 11
27 27 27 26 25 25 21 20 20 20 19 19 17 16 15 15 14 14 13 12 12 11 11 11 11 10 10 9 9 9 9 9 9 9 10 10 10 11 11 11 12 12 12 12
28 28 28 28 26 25 23 21 21 21 21 20 19 18 17 17 15 14 14 14 14 13 12 11 11 11 10 10 10 10 10 10 11 10 11 11 12 12 12 12 13 13 14 14
29 29 30 29 28 25 23 23 22 22 20 20 20 20 19 18 17 15 15 16 15 14 13 12 12 12 11 11 11 11 11 11 12 12 12 12 13 13 14 13 14 14 14 15
29 29 30 30 29 26 25 24 24 24 21 21 21 21 20 19 18 17 17 17 17 16 15 14 13 13 12 12 12 12 12 13 13 13 13 13 13 13 14 15 15 15 15 15
30 30 30 30 30 27 26 26 25 24 24 23 23 22 22 21 20 19 19 18 18 18 17 16 15 14 14 13 13 13 12 13 13 14 14 15 15 15 15 16 17 17 17 16
30 30 31 31 30 29 28 26 25 26 25 25 24 24 23 22 21 21 20 20 20 19 19 18 17 16 16 15 15 14 14 15 15 15 16 16 17 17 17 17 18 18 18 17
31 31 32 32 31 30 30 28 27 26 26 26 26 25 24 24 23 22 22 21 21 20 20 20 19 18 18 18 17 17 17 16 17 17 18 18 18 19 18 18 19 19 19 19
30 31 32 31 31 30 29 30 29 29 28 27 27 27 26 26 24 23 23 23 22 21 21 21 21 21 20 20 19 18 18 18 19 19 20 19 19 19 19 20 20 21 21 21
31 31 31 29 29 31 30 30 29 29 28 28 27 27 27 28 26 25 25 24 24 23 23 23 22 22 22 21 20 20 20 21 21 21 21 21 21 21 21 21 21 22 22 23
Wind_Direction
277 280 284 283 281 284 289 294 302 312 315 320 323 319 321 323 322 314 301 292 278 276 274 271 265 265 263 263 260 261 245 249 253 257 260 265 274 281 281 273 266 265 267 268
272 276 280 282 280 284 288 291 298 304 305 313 317 316 311 312 316 316 310 296 284 278 278 270 261 261 258 260 263 260 249 249 251 254 256 262 263 275 281 272 266 267 267 267
268 273 276 278 283 289 290 291 294 301 305 308 312 313 310 311 310 311 312 310 300 283 280 276 267 262 257 259 266 266 262 261 265 262 256 255 257 261 268 271 268 267 267 270
263 269 273 278 280 280 278 285 290 294 301 307 308 309 307 312 313 310 310 312 304 289 281 276 274 268 263 266 267 266 264 267 271 265 253 252 251 260 270 272 271 261 255 265
265 267 268 272 277 279 280 282 290 292 297 302 306 305 304 307 310 310 312 313 304 290 284 279 276 277 275 275 265 262 268 263 263 260 251 245 251 258 265 269 253 231 236 260
263 264 264 269 273 277 278 281 288 293 295 299 305 303 303 305 309 308 307 310 306 296 288 282 279 277 272 271 264 262 270 273 268 259 255 250 248 251 258 261 244 242 253 260
263 262 263 265 268 273 277 282 289 292 295 299 302 302 303 307 308 304 302 305 305 298 287 287 286 277 272 272 270 266 266 266 267 263 256 253 250 252 252 254 243 248 258 261
260 262 262 263 265 269 272 277 285 292 295 295 297 301 304 307 305 300 303 303 305 304 296 293 289 280 274 275 276 272 264 261 262 262 255 252 253 254 259 256 248 249 257 261
257 261 262 262 262 266 269 273 278 284 290 292 295 300 302 304 301 296 299 302 303 307 305 299 291 281 273 271 274 275 267 261 260 261 256 252 256 257 255 256 254 254 254 261
255 258 259 259 260 263 266 271 275 281 287 291 296 300 300 291 291 295 295 295 300 303 302 299 293 284 275 268 270 271 267 264 261 259 252 250 251 251 253 256 254 253 259 267
254 256 258 256 258 263 265 267 271 277 282 287 293 296 294 286 284 289 292 292 295 297 296 293 291 289 276 268 267 267 265 265 262 258 254 251 245 246 253 253 252 261 265 269
254 256 258 259 257 258 260 262 266 272 277 282 289 293 288 285 285 289 288 291 298 294 292 291 292 289 278 267 266 267 267 264 258 257 254 254 250 250 251 251 256 261 266 268
253 256 258 258 257 257 259 261 264 268 271 277 283 289 287 285 283 285 284 285 291 293 290 289 289 290 282 272 267 266 268 268 264 257 256 257 254 252 248 253 259 262 265 268
251 254 256 258 258 257 258 259 262 266 269 274 279 284 282 283 281 278 277 278 283 285 285 283 285 285 285 278 269 266 264 266 263 259 259 257 252 252 251 255 259 264 267 268
248 251 253 254 256 256 257 258 260 264 268 271 272 277 280 278 275 273 273 275 276 280 280 277 276 278 280 275 268 264 260 261 261 259 260 258 256 256 258 263 265 264 266 271
246 248 250 252 253 255 256 257 261 263 266 267 266 269 274 274 273 273 273 272 272 275 276 276 272 271 276 273 269 266 258 257 259 259 260 260 260 259 259 263 268 269 268 271
244 246 249 250 252 254 254 258 260 261 263 264 263 265 267 269 270 270 271 270 270 273 272 273 275 273 270 267 266 266 264 262 264 261 261 263 263 261 261 264 269 274 274 276
244 245 248 250 252 253 256 256 257 257 258 260 260 260 261 264 266 265 264 265 267 271 272 273 274 273 269 265 264 266 265 264 263 261 262 263 265 265 263 265 270 273 275 277
244 245 247 249 251 254 254 256 257 256 255 257 257 258 262 263 264 263 261 261 263 265 269 272 273 270 267 264 260 260 261 262 262 264 265 266 266 268 267 268 271 274 275 277
245 246 247 249 251 253 254 254 254 255 253 253 255 256 258 261 262 263 262 261 262 263 266 268 269 268 268 265 260 258 258 260 261 263 265 266 268 271 270 268 271 274 277 279
247 248 248 249 251 252 253 253 253 253 253 252 253 254 255 258 261 261 260 259 260 261 262 265 266 267 269 267 261 260 260 260 260 261 264 265 268 272 272 271 272 275 278 279
250 250 249 250 251 251 253 254 253 251 251 251 253 256 257 257 260 259 258 257 258 259 259 261 263 264 265 265 262 260 260 263 261 262 264 265 267 269 272 275 273 274 278 278
250 250 250 250 251 250 251 253 253 251 251 250 251 254 256 257 258 258 257 257 257 257 257 259 261 263 262 263 263 261 261 263 263 266 268 269 268 268 271 275 275 276 277 279
250 249 249 251 250 249 249 249 251 252 251 250 251 252 254 255 256 256 255 255 256 257 257 257 259 262 263 262 263 262 263 265 266 268 269 271 271 271 271 274 276 277 278 279
249 248 248 249 249 248 247 247 248 249 251 252 252 253 253 253 254 254 254 254 256 257 258 258 258 260 262 262 262 263 264 267 267 267 269 271 273 273 272 273 274 276 277 278
248 249 248 249 249 247 246 247 248 248 248 250 252 251 253 252 251 253 252 252 253 256 259 258 257 257 259 260 262 263 265 267 267 270 271 270 271 271 271 272 273 274 276 277
Height
5857 5858 5858 5858 5858 5858 5857 5858 5858 5857 5857 5856 5855 5854 5853 5852 5852 5851 5850 5849 5848 5848 5848 5848 5848 5848 5848 5848 5848 5848 5848 5848 5849 5849 5849 5849 5849 5849 5849 5849 5849 5849 5849 5849
5857 5857 5857 5856 5856 5857 5857 5857 5857 5857 5856 5855 5854 5854 5853 5852 5851 5850 5849 5848 5847 5846 5846 5846 5846 5847 5847 5847 5847 5847 5847 5847 5847 5848 5848 5848 5848 5848 5848 5848 5848 5848 5848 5848
5855 5856 5855 5856 5856 5856 5856 5856 5856 5856 5855 5854 5854 5853 5852 5851 5850 5849 5848 5847 5846 5845 5845 5845 5845 5845 5845 5845 5845 5846 5846 5846 5846 5846 5846 5847 5847 5848 5848 5847 5847 5847 5847 5847
5853 5854 5854 5854 5854 5855 5855 5855 5854 5854 5854 5853 5853 5853 5852 5850 5849 5848 5847 5846 5845 5844 5844 5844 5844 5844 5844 5844 5844 5844 5844 5845 5845 5845 5846 5846 5847 5847 5847 5846 5846 5847 5847 5847
5852 5852 5853 5853 5853 5853 5853 5853 5853 5853 5852 5852 5852 5851 5852 5850 5848 5847 5846 5845 5844 5843 5843 5843 5843 5843 5843 5842 5843 5843 5843 5844 5844 5844 5845 5845 5846 5846 5846 5846 5846 5846 5846 5846
5850 5850 5851 5852 5852 5852 5852 5852 5852 5851 5851 5851 5851 5850 5850 5849 5847 5846 5845 5844 5843 5842 5842 5842 5842 5842 5842 5842 5842 5842 5842 5843 5843 5843 5844 5844 5844 5845 5845 5845 5845 5845 5846 5846
5848 5849 5849 5850 5850 5850 5851 5851 5851 5850 5849 5850 5849 5849 5849 5847 5846 5845 5844 5843 5842 5842 5841 5841 5841 5841 5841 5841 5841 5841 5841 5842 5842 5842 5842 5843 5843 5843 5844 5844 5844 5845 5845 5845
5845 5847 5847 5848 5848 5848 5848 5849 5849 5849 5848 5848 5848 5847 5848 5846 5845 5844 5843 5842 5841 5840 5840 5840 5840 5839 5839 5839 5839 5839 5840 5840 5841 5841 5841 5842 5842 5842 5843 5843 5843 5843 5844 5844
5843 5844 5845 5845 5845 5846 5846 5846 5847 5847 5846 5846 5846 5846 5846 5844 5843 5842 5842 5841 5840 5840 5839 5839 5839 5838 5838 5838 5838 5838 5838 5838 5839 5839 5840 5840 5840 5841 5841 5842 5842 5842 5843 5843
5840 5841 5842 5842 5843 5843 5844 5844 5844 5844 5844 5844 5845 5845 5845 5843 5842 5842 5841 5840 5840 5839 5838 5838 5837 5837 5837 5837 5837 5837 5837 5837 5837 5838 5838 5839 5839 5839 5840 5840 5841 5841 5841 5841
5836 5837 5839 5840 5840 5841 5842 5842 5842 5842 5842 5842 5843 5845 5843 5842 5841 5841 5840 5839 5839 5838 5837 5837 5836 5836 5835 5835 5836 5836 5836 5836 5836 5836 5837 5837 5837 5838 5838 5839 5839 5840 5840 5840
5832 5833 5834 5836 5838 5838 5838 5839 5839 5840 5840 5840 5840 5844 5840 5840 5839 5839 5838 5838 5837 5836 5836 5835 5835 5834 5834 5834 5834 5834 5834 5834 5835 5835 5835 5835 5836 5837 5837 5838 5838 5838 5839 5839
5827 5829 5831 5832 5835 5835 5835 5835 5836 5837 5837 5837 5837 5841 5838 5837 5837 5837 5836 5836 5835 5835 5834 5834 5834 5833 5833 5833 5833 5833 5833 5833 5833 5833 5834 5834 5835 5835 5836 5836 5836 5837 5837 5837
5822 5824 5827 5829 5829 5830 5831 5832 5833 5833 5833 5834 5835 5836 5836 5835 5835 5834 5834 5834 5833 5833 5832 5832 5832 5831 5831 5831 5831 5831 5831 5831 5831 5831 5832 5832 5833 5834 5834 5834 5835 5835 5835 5835
5816 5819 5820 5822 5824 5825 5826 5828 5829 5829 5830 5831 5832 5833 5833 5832 5832 5832 5831 5831 5831 5831 5830 5830 5830 5829 5829 5829 5829 5829 5829 5829 5829 5830 5830 5831 5831 5832 5832 5833 5833 5833 5833 5833
5810 5813 5815 5817 5818 5819 5821 5823 5824 5825 5826 5827 5828 5829 5830 5829 5829 5829 5829 5828 5828 5828 5828 5827 5827 5827 5827 5826 5826 5827 5827 5827 5828 5828 5828 5829 5829 5830 5830 5831 5831 5831 5831 5831
5804 5807 5808 5811 5812 5813 5816 5819 5820 5821 5821 5822 5823 5826 5825 5825 5825 5826 5826 5825 5825 5825 5825 5825 5825 5824 5824 5824 5824 5824 5825 5825 5825 5826 5826 5827 5827 5828 5828 5828 5828 5828 5828 5828
5798 5800 5801 5804 5806 5807 5813 5813 5814 5815 5816 5817 5818 5820 5820 5821 5821 5821 5822 5822 5822 5822 5822 5822 5821 5821 5821 5821 5821 5822 5822 5823 5823 5823 5824 5824 5824 5825 5825 5825 5825 5825 5825 5825
5790 5793 5794 5797 5798 5801 5805 5807 5808 5809 5811 5812 5813 5814 5815 5816 5817 5817 5818 5818 5818 5818 5818 5818 5818 5818 5818 5818 5818 5819 5819 5820 5820 5821 5821 5821 5821 5822 5822 5822 5822 5822 5822 5822
5783 5785 5788 5790 5791 5794 5800 5801 5801 5803 5805 5807 5807 5809 5810 5811 5812 5814 5814 5814 5814 5814 5815 5815 5815 5815 5815 5815 5815 5816 5816 5817 5817 5817 5818 5818 5818 5818 5818 5818 5818 5818 5818 5818
5775 5777 5779 5782 5783 5787 5791 5793 5795 5798 5801 5801 5801 5803 5804 5805 5807 5808 5808 5809 5810 5810 5810 5811 5811 5811 5811 5811 5812 5812 5813 5813 5813 5814 5814 5814 5814 5814 5814 5814 5815 5814 5814 5814
5767 5769 5772 5774 5776 5782 5784 5786 5789 5791 5792 5794 5795 5796 5798 5799 5801 5802 5803 5804 5804 5805 5806 5806 5807 5807 5807 5807 5808 5809 5809 5809 5809 5810 5810 5810 5810 5810 5810 5810 5810 5810 5810 5810
5759 5762 5764 5767 5772 5774 5776 5778 5780 5782 5784 5786 5788 5790 5791 5793 5794 5795 5797 5798 5799 5800 5800 5801 5802 5802 5802 5803 5803 5804 5805 5805 5805 5805 5805 5805 5806 5806 5806 5805 5805 5805 5805 5805
5751 5753 5756 5759 5762 5765 5767 5770 5772 5774 5776 5778 5781 5783 5784 5786 5787 5789 5790 5791 5792 5793 5794 5795 5796 5797 5797 5797 5798 5799 5799 5799 5800 5800 5800 5800 5800 5800 5800 5800 5800 5800 5799 5799
5743 5744 5747 5750 5754 5756 5759 5761 5764 5766 5768 5770 5772 5774 5776 5778 5780 5782 5783 5784 5785 5786 5788 5789 5790 5791 5791 5792 5792 5792 5793 5793 5794 5794 5795 5795 5795 5794 5794 5794 5794 5794 5793 5793
5734 5736 5739 5742 5745 5747 5750 5752 5755 5757 5759 5762 5764 5766 5768 5770 5772 5774 5775 5777 5778 5779 5781 5782 5783 5784 5785 5785 5786 5786 5787 5787 5787 5788 5788 5788 5788 5788 5788 5787 5787 5787 5787 5786